GW0686 Weather Reports


time (UTC)temp
C
wind
direction
speed
KPH
gust
KPH
rain 1hr
cm
rain 24hr
cm
rain mn
cm
humidity
%
barometer
mb
20260503190042 16 273 4.8 11.3 0.00 0.08 0.00 45 1017.2
20260503184551 17 0 1.6 9.7 0.00 0.08 0.00 44 1017.3
20260503183058 16 265 6.4 12.9 0.00 0.08 0.00 45 1017.6
20260503181546 16 254 3.2 9.7 0.00 0.08 0.00 49 1017.7
20260503180048 16 200 1.6 14.5 0.00 0.08 0.00 49 1017.6
20260503174542 15 301 0.0 12.9 0.00 0.15 0.00 49 1017.6
20260503173108 15 0 1.6 6.4 0.00 0.15 0.00 49 1017.6
20260503171545 15 265 3.2 11.3 0.00 0.15 0.00 48 1017.8
20260503120103 8 42 0.0 6.4 0.00 0.36 0.00 89 1017.0
20260503081546 7 0 0.0 0.0 0.00 0.48 0.00 96 1013.7
20260503071543 7 0 0.0 0.0 0.00 0.48 0.00 95 1013.2
20260503054541 8 0 0.0 0.0 0.00 0.48 0.00 91 1012.9
20260503053042 9 0 0.0 0.0 0.00 0.48 0.00 90 1012.7
20260503051545 10 0 0.0 0.0 0.00 0.48 0.00 90 1012.7
20260503050045 10 0 0.0 0.0 0.00 0.48 0.00 92 1012.9
20260503044542 10 0 0.0 0.0 0.00 0.48 0.00 93 1012.6
20260503043043 10 0 0.0 0.0 0.00 0.48 0.00 93 1012.7
20260503041556 10 0 0.0 0.0 0.00 0.48 0.00 93 1012.6
20260503040056 10 0 0.0 0.0 0.00 0.48 0.00 93 1012.7
20260503034600 10 0 0.0 0.0 0.00 0.48 0.48 93 1012.7
20260503033045 10 0 0.0 0.0 0.00 0.48 0.48 93 1012.7
20260503031543 10 0 0.0 0.0 0.00 0.48 0.48 93 1012.6
20260503030052 10 0 0.0 0.0 0.00 0.48 0.48 93 1012.7
20260503024548 10 0 0.0 0.0 0.00 0.51 0.48 92 1012.8
20260503023051 10 0 0.0 0.0 0.00 0.51 0.48 92 1012.7
20260503021547 10 0 0.0 0.0 0.00 0.51 0.48 90 1012.6
20260503020043 10 0 0.0 0.0 0.00 0.51 0.48 90 1012.7
20260503014549 10 0 0.0 0.0 0.00 0.51 0.48 89 1012.8
20260503013048 11 0 0.0 1.6 0.03 0.51 0.48 88 1012.7
20260503011541 11 264 0.0 1.6 0.03 0.51 0.48 93 1012.3
20260503010047 11 0 0.0 1.6 0.03 0.51 0.48 94 1012.1
20260503004610 11 290 0.0 1.6 0.03 0.51 0.48 94 1011.9
20260503003042 11 0 0.0 0.0 0.00 0.48 0.46 94 1011.7
20260503001542 11 0 0.0 0.0 0.00 0.48 0.46 94 1011.8
20260503000053 11 0 0.0 0.0 0.00 0.48 0.46 93 1011.9
20260502234545 11 0 0.0 0.0 0.00 0.48 0.46 92 1011.4
20260502233045 11 0 0.0 0.0 0.00 0.48 0.46 92 1011.2
20260502231552 11 0 0.0 0.0 0.00 0.48 0.46 91 1011.0
20260502230044 11 0 0.0 0.0 0.00 0.48 0.46 90 1010.9
20260502224543 11 0 0.0 1.6 0.00 0.48 0.46 90 1011.1
20260502223047 11 275 0.0 1.6 0.00 0.48 0.46 88 1011.2
20260502221547 11 0 0.0 1.6 0.00 0.48 0.46 89 1011.2
20260502220100 11 0 0.0 1.6 0.00 0.48 0.46 89 1011.2
20260502214548 11 30 0.0 3.2 0.00 0.48 0.46 90 1011.3
20260502213042 11 282 0.0 4.8 0.00 0.48 0.46 91 1011.3
20260502211548 11 0 0.0 1.6 0.03 0.48 0.46 92 1011.2
20260502210055 11 0 0.0 3.2 0.03 0.48 0.46 91 1011.2
20260502204548 11 273 0.0 3.2 0.03 0.48 0.46 91 1011.0
20260502203049 11 283 0.0 1.6 0.05 0.48 0.46 91 1011.0
20260502201545 11 0 0.0 4.8 0.03 0.46 0.43 91 1011.1
20260502200051 11 322 0.0 4.8 0.03 0.46 0.43 92 1011.1
20260502194542 11 0 0.0 8.0 0.03 0.46 0.43 92 1010.9
20260502193045 11 176 0.0 4.8 0.00 0.43 0.41 91 1011.2
20260502191545 11 0 0.0 8.0 0.00 0.43 0.41 91 1011.6